Temperature
19 19 19 19 19 20 21 23 25 26 26 27 27 27 25 24 22 20 19 20 19 19 19 19 19 19 19 18 18 18 18 18 18 18 18 18 18 18 18 18 18 18 18 18 18 18 18 18 18
19 19 19 19 20 21 22 24 25 26 26 27 27 26 25 23 22 20 19 20 19 19 18 19 19 19 18 18 18 18 18 18 18 18 18 18 18 18 18 18 18 18 18 18 18 18 18 18 18
19 19 20 20 21 22 23 24 25 26 27 27 27 26 24 23 21 20 19 20 19 19 19 19 19 18 18 18 18 18 18 18 18 18 18 18 18 18 18 18 18 18 18 18 18 18 18 18 18
19 20 20 21 22 23 24 25 26 27 26 27 27 25 23 22 21 20 20 20 19 19 19 19 19 18 18 18 18 18 18 18 17 17 18 18 18 18 18 18 18 18 18 18 18 18 18 18 18
19 20 21 22 23 24 26 27 27 27 27 27 26 24 22 21 21 20 20 20 20 19 19 19 18 18 18 18 18 17 17 17 17 17 17 17 17 17 17 17 18 18 18 18 18 18 18 18 18
20 21 21 22 23 24 26 27 27 27 26 26 26 24 22 21 21 20 20 20 19 19 19 18 18 18 18 17 17 17 17 17 17 16 17 17 17 17 17 17 17 17 17 17 18 18 18 18 18
20 21 22 23 22 24 26 27 26 26 26 26 26 24 22 21 21 20 20 20 19 19 19 18 18 18 17 17 17 17 17 16 16 16 16 16 16 17 17 17 17 17 17 17 17 17 18 18 18
21 21 23 24 23 24 25 26 26 26 26 25 25 24 22 21 21 20 20 20 19 19 19 19 18 18 17 17 17 17 16 16 16 16 16 16 16 16 16 16 16 17 17 17 17 17 17 17 18
22 21 22 23 23 24 26 26 26 26 26 25 25 24 22 21 21 21 20 20 20 20 19 19 18 18 18 17 17 16 16 16 16 16 16 15 16 16 16 16 16 16 16 17 17 17 17 17 17
22 21 22 24 25 25 26 26 26 26 26 25 24 23 22 22 21 21 21 21 20 20 19 19 19 18 18 17 17 16 16 16 16 15 15 15 15 16 16 16 16 16 16 16 17 17 17 17 17
23 23 23 25 26 26 26 26 26 26 25 25 24 23 22 22 22 22 22 21 21 20 19 19 19 18 18 17 17 16 16 16 16 15 15 15 15 15 16 16 16 16 16 16 16 16 17 17 17
22 23 24 24 25 26 26 26 26 26 25 25 24 23 23 23 23 22 22 22 21 20 19 19 18 18 17 17 17 16 16 16 16 15 15 15 15 15 15 15 15 16 16 16 16 16 16 17 17
22 23 24 24 25 26 26 26 26 26 26 25 24 24 23 23 23 23 22 22 21 20 19 19 18 18 17 17 17 16 16 16 16 15 15 15 15 15 15 15 15 15 15 16 16 16 16 16 16
22 24 24 25 25 25 26 26 26 26 26 25 25 24 23 23 23 23 22 22 21 20 20 19 18 17 17 17 16 16 16 16 15 15 15 15 15 15 15 15 15 15 15 15 16 16 16 16 16
23 23 24 25 26 26 26 25 26 26 26 26 25 24 24 23 23 23 22 22 21 20 20 18 18 17 17 16 16 16 16 15 15 15 15 15 15 15 15 15 15 15 15 15 15 15 16 16 16
24 24 23 25 25 26 25 24 26 26 26 26 25 25 24 24 23 23 23 22 21 20 19 18 18 17 17 16 15 15 15 15 15 15 14 14 14 14 14 14 15 15 15 15 15 15 15 15 16
25 24 24 23 25 26 26 25 26 26 26 26 26 25 24 24 24 23 22 22 21 20 19 18 18 17 16 16 16 15 15 15 15 14 14 14 14 14 14 14 14 14 14 14 15 15 15 15 15
23 24 24 24 25 26 26 26 26 26 26 26 26 26 25 25 24 23 22 21 20 19 19 18 17 17 16 16 16 15 15 15 14 14 14 14 13 14 14 14 14 14 14 14 14 14 15 15 15
23 24 25 25 27 26 26 26 27 27 27 27 26 26 26 25 24 23 22 21 20 19 18 18 18 17 16 16 15 15 15 15 14 14 14 13 13 13 13 13 14 14 14 14 14 14 14 15 15
23 25 25 25 26 26 27 27 28 28 27 27 27 27 26 25 24 23 22 21 20 19 18 19 18 17 16 16 15 15 15 14 14 14 14 13 13 13 13 13 13 13 14 14 14 14 14 14 15
25 25 25 24 25 27 27 26 27 29 28 28 27 27 27 26 25 23 22 21 20 19 18 18 18 17 16 15 15 15 14 14 14 14 14 13 13 13 13 13 13 13 13 13 13 14 14 14 14
24 25 25 25 25 25 27 25 27 28 27 27 27 27 27 26 25 23 22 21 20 19 19 18 18 17 16 15 15 14 14 14 14 14 14 13 13 13 13 13 13 13 13 13 13 13 13 14 14
25 26 26 26 26 26 27 26 27 27 27 27 27 27 26 26 25 24 23 21 20 19 18 18 17 16 16 15 15 14 14 14 14 14 14 14 14 13 13 13 13 13 13 13 13 13 13 13 14
27 27 27 27 26 25 27 26 26 27 27 27 27 27 26 26 25 24 22 21 20 19 18 17 17 16 15 15 14 14 14 14 14 14 14 14 14 14 13 13 13 13 13 13 13 13 13 13 13
27 26 25 24 24 25 27 27 27 27 28 28 27 27 26 25 25 23 22 21 20 19 18 17 17 16 15 15 15 15 14 14 14 14 14 14 14 14 13 13 13 13 13 13 13 13 13 13 13
27 26 24 23 23 25 27 27 27 28 28 27 27 27 26 25 24 23 22 20 20 19 18 17 17 16 16 15 15 15 15 15 14 14 14 14 14 14 13 13 13 13 13 13 13 13 13 13 13
27 27 27 26 25 25 27 28 28 28 28 27 27 27 26 25 24 23 22 20 19 19 18 17 17 16 16 15 15 15 15 15 15 14 14 14 14 14 13 13 13 13 13 13 13 13 13 13 13
27 27 26 25 24 24 25 26 26 26 27 27 27 26 26 25 24 23 22 21 20 19 18 17 17 16 16 15 15 15 15 15 15 14 14 14 14 14 13 13 13 13 13 13 13 13 13 13 13
26 26 26 26 25 24 24 25 27 27 27 27 27 27 26 25 24 23 22 21 20 19 18 17 17 16 16 16 15 15 15 15 14 14 14 14 14 14 14 13 13 13 13 13 13 13 13 13 13
27 27 26 24 24 25 24 25 28 27 27 27 27 27 26 25 24 23 22 21 20 19 18 17 17 17 16 16 15 15 15 15 15 15 14 14 14 14 14 14 14 14 13 13 13 13 13 13 13
Wind_Speed
8 6 4 2 2 3 2 2 2 4 6 8 8 9 13 13 8 7 3 5 11 13 14 12 10 8 7 6 5 5 4 4 3 3 2 2 3 3 3 3 3 3 3 3 3 4 4 4 4
6 5 3 2 2 2 1 3 5 7 6 5 6 11 13 11 11 9 5 6 10 12 13 12 10 8 7 6 5 5 4 4 3 3 3 3 3 4 4 4 4 4 4 3 2 3 3 3 4
6 5 3 3 3 1 2 4 5 6 4 5 7 11 10 7 9 6 6 7 10 12 15 13 10 8 7 6 5 5 4 4 3 3 3 3 3 4 5 4 5 5 5 4 3 2 2 3 3
4 3 3 4 4 1 3 5 4 5 4 4 7 9 10 8 7 9 8 8 11 12 14 13 11 9 7 6 5 5 4 4 3 3 3 3 4 4 5 5 5 5 5 5 4 3 3 3 3
3 3 4 4 3 1 3 5 4 5 5 6 10 11 10 10 12 11 8 8 9 9 11 12 11 9 7 6 5 5 4 4 3 3 3 4 5 5 5 6 5 5 5 5 5 4 3 3 3
2 3 3 2 1 1 2 3 4 6 5 5 8 11 8 10 10 9 9 7 8 8 9 12 11 10 8 7 6 5 4 4 4 4 4 5 5 6 7 7 6 6 6 6 6 5 4 4 4
3 3 4 2 3 2 1 2 4 4 5 5 5 8 9 10 8 9 9 8 7 6 6 7 10 10 9 8 6 4 2 1 3 4 5 6 7 8 8 8 7 6 6 6 6 6 6 6 5
4 3 5 1 2 2 3 2 3 5 5 4 3 6 9 11 9 9 8 7 6 5 4 5 5 6 6 8 8 6 4 3 4 5 7 8 10 11 11 10 8 7 7 7 8 8 7 6 6
4 3 4 2 2 2 3 3 3 2 5 5 8 11 12 14 11 9 7 7 6 5 3 4 3 4 2 3 7 6 6 6 6 7 8 9 8 7 8 7 7 7 7 8 8 9 8 8 8
3 2 2 2 1 3 3 3 3 2 4 5 10 11 11 12 10 8 7 7 6 5 4 3 3 3 3 4 4 1 1 3 4 1 1 4 5 5 5 2 7 7 8 8 9 10 9 8 7
3 3 3 4 4 4 2 2 2 2 3 4 8 12 10 10 9 7 6 6 5 5 5 5 4 4 4 3 3 2 2 1 2 4 4 4 3 4 3 1 4 6 7 5 6 8 8 7 6
4 5 4 4 3 2 0 1 1 1 3 6 9 12 11 10 8 6 5 6 6 6 6 5 5 5 5 5 2 1 1 2 2 4 5 3 2 2 2 1 1 2 2 2 2 2 4 5 6
6 7 5 4 3 2 2 2 2 2 4 6 9 10 10 9 7 5 5 6 5 6 5 6 4 5 4 3 2 2 2 2 2 3 4 3 2 2 3 2 1 2 2 1 1 2 2 3 2
6 7 6 5 3 3 3 4 4 4 5 7 9 10 10 8 7 6 6 5 5 6 6 7 4 4 2 2 3 4 2 1 2 3 5 4 2 2 2 3 2 2 1 1 1 2 1 2 2
6 7 6 6 6 4 4 6 7 6 6 7 9 10 9 8 7 5 6 5 5 6 7 8 3 3 5 6 5 3 2 4 3 3 7 7 6 4 2 3 3 2 2 1 1 2 1 2 2
8 7 5 4 5 5 5 4 3 6 7 7 7 9 10 8 8 7 7 6 6 6 6 7 4 4 5 4 3 3 3 4 3 4 6 9 9 8 3 3 3 3 3 1 1 0 1 1 1
6 6 4 3 7 6 6 4 4 6 8 8 9 9 11 11 9 7 8 7 6 6 4 7 7 3 5 3 0 1 3 2 2 4 5 7 9 9 4 3 3 3 3 3 3 2 1 1 1
3 3 1 3 6 6 6 6 6 8 9 8 8 7 9 10 10 9 8 8 8 6 3 6 7 3 4 2 2 3 3 3 3 3 4 6 6 7 5 4 4 4 3 3 3 2 1 1 1
6 6 2 1 2 4 7 7 7 9 10 9 8 8 9 10 10 11 10 9 8 6 3 5 5 6 4 2 2 3 2 2 3 3 3 3 5 6 4 4 4 4 3 3 3 2 2 2 1
8 7 2 3 3 5 8 9 8 8 10 10 9 9 10 10 10 11 11 10 8 7 4 4 6 6 6 3 2 1 2 1 2 2 3 5 5 6 6 5 4 3 3 4 3 3 2 2 1
7 4 4 4 7 10 10 9 7 5 6 7 7 6 8 11 12 13 11 9 9 8 6 3 7 7 6 4 2 2 2 1 1 1 3 2 2 3 4 5 5 4 3 3 3 3 2 2 2
3 4 4 7 8 6 6 6 6 4 6 6 6 5 5 6 9 12 12 10 9 8 6 5 7 6 6 4 3 1 1 2 2 1 2 0 2 3 3 4 4 4 4 4 4 4 3 2 2
2 4 8 10 10 11 10 7 1 5 5 6 8 8 6 6 9 10 11 11 9 8 7 4 7 7 6 4 4 1 1 1 1 1 1 1 2 2 2 2 3 3 3 3 3 3 2 2 2
3 7 11 11 9 8 5 3 3 4 5 3 5 8 8 7 8 10 10 10 9 8 7 6 6 6 6 4 4 4 2 1 1 1 1 2 0 1 3 1 3 3 3 3 3 3 2 1 2
6 8 5 3 3 3 4 3 0 7 7 4 3 3 8 8 9 10 11 10 10 10 9 7 8 6 6 5 5 4 3 2 2 0 0 1 1 1 3 3 3 3 3 2 2 3 2 1 1
5 7 4 3 5 7 7 2 5 10 7 4 1 1 4 8 8 10 11 11 10 10 10 8 8 7 6 6 4 3 3 3 1 1 1 1 1 2 2 2 2 2 3 3 3 2 3 3 2
5 4 6 7 10 9 4 3 5 8 6 4 3 2 3 7 8 9 11 11 11 11 10 9 8 7 7 5 4 3 3 2 2 1 1 1 0 1 2 1 0 1 1 2 3 2 3 4 3
7 7 6 5 5 6 7 5 5 6 6 4 1 5 5 6 8 9 10 11 11 10 10 9 8 8 7 7 5 4 2 3 3 1 1 2 2 2 0 2 1 1 1 1 2 2 2 2 1
7 7 6 5 6 6 6 4 3 5 5 4 3 1 5 7 8 8 9 10 11 11 10 9 9 8 7 7 6 5 5 4 4 3 2 1 3 2 2 0 2 1 1 2 2 1 2 3 2
5 6 6 5 6 7 7 5 4 6 4 2 1 2 2 6 8 8 9 10 10 11 11 10 10 9 8 7 6 6 6 5 4 5 4 4 3 1 1 2 1 1 1 2 2 1 1 1 2
Wind_Direction
181 197 208 225 243 234 243 200 118 64 60 45 34 58 68 55 55 89 131 106 113 116 118 110 100 94 89 86 84 80 77 69 60 44 22 4 350 332 321 324 322 316 319 339 353 355 355 353 355
197 194 219 233 248 247 191 124 89 73 72 72 53 63 76 69 80 97 105 99 111 111 108 103 99 90 84 78 75 70 64 57 43 23 3 345 335 328 316 312 308 304 300 303 318 342 348 345 343
213 214 242 240 248 264 120 103 99 86 60 73 80 64 62 69 84 103 126 122 107 100 98 97 92 85 79 72 66 61 55 46 29 13 355 340 331 321 313 312 306 302 300 290 278 285 311 325 335
192 219 240 245 264 238 132 127 114 105 74 54 85 80 72 63 89 116 130 116 104 103 104 102 94 87 79 71 64 57 52 42 24 1 342 325 313 308 305 299 297 293 288 287 272 255 256 280 301
228 244 252 249 254 134 126 116 106 91 81 70 83 94 90 88 103 115 110 104 103 104 110 113 110 104 96 85 71 55 42 30 12 350 329 311 302 293 284 281 275 273 269 268 262 254 247 265 277
233 239 254 258 107 22 106 101 94 92 84 68 95 103 106 116 110 112 112 108 104 107 114 124 132 131 130 121 103 79 47 17 356 339 321 307 296 284 271 261 257 258 261 259 252 245 242 248 257
235 251 259 233 151 185 100 80 85 93 84 59 75 104 122 122 120 120 115 111 105 105 109 125 143 149 152 141 129 117 103 3 314 304 296 289 278 270 261 254 248 251 254 255 251 238 235 236 239
236 278 286 299 128 139 118 103 86 88 92 77 58 108 133 136 140 129 124 120 117 116 113 116 129 124 144 156 152 161 173 202 250 261 267 271 270 261 249 244 237 242 246 247 248 239 234 239 239
264 270 297 338 116 132 136 128 95 71 116 105 71 83 123 139 144 142 145 142 139 124 114 114 108 100 123 162 147 184 198 204 240 247 247 261 270 271 244 221 211 227 244 249 247 242 238 237 237
221 255 294 304 29 108 135 125 123 163 118 103 101 106 127 145 155 164 165 155 142 126 104 79 75 85 69 44 79 6 57 174 245 303 274 258 286 305 297 208 215 227 244 250 248 244 241 233 227
246 255 313 328 17 49 104 116 147 172 105 130 136 136 144 159 167 171 162 131 110 102 82 57 32 56 52 65 43 19 351 353 360 23 344 328 329 320 311 254 216 222 234 238 242 230 228 222 215
278 295 308 322 360 349 31 143 168 111 104 132 139 147 158 175 174 172 156 126 124 98 83 60 26 33 49 60 5 281 62 34 27 24 353 2 358 330 330 305 295 266 237 197 224 223 224 226 217
253 269 280 283 264 278 290 226 223 200 155 143 142 150 166 176 172 160 129 118 121 111 115 89 45 37 40 78 272 19 62 33 31 37 331 4 358 332 339 315 318 302 311 240 223 239 238 241 233
218 242 254 257 232 240 247 247 231 204 178 168 161 168 175 172 173 163 152 142 131 118 105 95 59 43 20 42 33 41 19 36 32 31 339 6 5 337 353 356 349 322 317 319 304 259 221 234 225
225 239 239 246 225 211 244 241 219 197 186 184 180 175 171 171 168 177 150 133 118 110 103 96 73 42 41 44 24 20 8 28 24 25 356 6 12 0 17 1 352 331 328 336 323 323 320 249 237
212 229 234 238 222 192 228 265 202 182 198 200 197 180 167 170 180 176 146 135 117 109 103 111 80 52 64 58 29 9 32 36 13 28 15 6 9 4 10 7 339 341 349 350 310 304 330 302 278
219 232 212 184 217 201 220 265 185 188 208 207 201 197 172 171 188 165 141 135 113 102 96 109 87 43 67 52 210 81 51 48 24 42 36 13 3 359 5 355 335 358 356 358 342 30 357 323 293
272 273 245 196 193 218 237 251 214 195 209 219 203 199 179 179 179 160 143 125 110 107 115 109 116 95 76 57 342 77 60 27 47 47 41 16 355 360 1 350 7 8 1 355 354 5 339 313 274
305 287 246 251 171 247 264 265 246 205 198 208 212 202 192 179 171 148 136 130 134 135 151 129 135 120 105 64 20 49 54 11 58 59 59 6 13 8 1 4 5 6 351 2 358 2 356 346 332
257 284 342 6 304 277 278 274 260 221 196 199 213 208 189 177 155 140 146 153 154 144 181 170 124 99 94 80 32 79 64 18 74 25 64 34 28 19 3 12 0 358 1 11 358 14 12 351 359
260 314 349 317 293 276 273 267 253 207 185 181 201 232 205 177 165 157 161 155 148 151 179 148 109 123 116 117 69 39 47 321 62 53 75 48 38 43 15 2 357 357 19 13 8 28 12 359 342
281 325 307 280 283 289 289 290 268 172 155 176 187 213 230 177 161 157 158 150 159 159 163 150 128 122 109 115 92 33 41 33 42 9 83 350 91 72 42 0 354 357 15 17 5 37 8 16 357
214 278 283 277 280 282 275 280 319 137 155 179 180 188 201 180 158 153 150 150 157 146 142 133 118 120 123 120 123 215 62 20 12 354 51 339 97 101 86 13 342 348 21 22 16 21 20 24 16
296 277 264 255 264 276 289 299 313 87 84 77 153 173 178 180 156 145 139 138 140 135 136 136 130 133 136 151 177 196 149 233 264 295 8 324 157 116 96 24 344 6 31 20 6 357 22 41 14
245 270 296 309 268 291 319 286 130 88 79 50 36 154 161 159 150 145 141 147 149 150 152 155 152 156 161 181 211 193 175 213 252 210 84 311 336 84 69 32 12 23 16 2 3 345 348 44 33
242 266 286 315 311 311 298 276 99 102 105 112 127 230 153 152 155 153 152 155 159 160 161 167 166 169 175 187 209 204 161 196 199 101 348 301 18 73 72 42 30 27 0 1 16 350 356 23 22
282 266 285 286 290 296 314 0 109 107 107 125 151 179 187 159 155 159 158 162 166 166 167 174 171 175 176 184 202 204 202 168 114 160 231 308 33 84 70 26 246 112 11 357 18 8 24 12 31
277 315 318 304 313 313 316 338 51 68 57 52 125 185 196 168 162 166 162 166 168 166 168 174 176 180 176 180 199 193 180 145 138 272 37 5 5 61 34 304 296 154 175 108 58 14 22 7 21
214 243 262 279 282 294 310 329 28 72 66 32 353 255 188 170 165 165 164 168 167 163 167 177 181 183 178 184 189 191 174 174 178 186 151 230 258 219 184 203 334 1 56 82 81 3 22 359 349
294 282 286 292 302 308 303 305 78 101 120 143 309 292 210 165 162 163 165 167 168 169 174 181 182 182 178 183 184 192 176 180 203 177 175 215 235 286 163 131 300 328 54 72 75 347 341 327 341
Height
1499 1500 1502 1504 1505 1506 1504 1495 1487 1485 1484 1485 1485 1485 1490 1495 1501 1512 1511 1510 1510 1510 1510 1511 1512 1513 1513 1514 1515 1515 1516 1517 1517 1518 1519 1519 1520 1520 1521 1521 1522 1522 1523 1523 1523 1523 1523 1524 1524
1499 1501 1504 1504 1505 1508 1502 1490 1487 1486 1486 1486 1487 1488 1492 1498 1503 1508 1509 1511 1511 1511 1511 1512 1512 1513 1513 1514 1514 1515 1515 1516 1516 1517 1517 1518 1518 1519 1520 1520 1521 1521 1522 1522 1522 1523 1523 1523 1523
1499 1501 1503 1502 1501 1503 1499 1487 1486 1486 1486 1486 1488 1491 1496 1502 1505 1508 1510 1511 1512 1512 1511 1512 1512 1513 1513 1513 1513 1514 1514 1514 1515 1515 1516 1516 1517 1518 1518 1519 1519 1520 1520 1521 1521 1521 1522 1522 1522
1500 1502 1502 1501 1500 1492 1487 1485 1484 1486 1487 1487 1488 1494 1501 1504 1506 1508 1510 1512 1512 1512 1512 1512 1513 1513 1513 1513 1513 1513 1513 1513 1513 1514 1514 1515 1515 1516 1516 1517 1517 1518 1518 1519 1519 1520 1520 1521 1521
1500 1501 1500 1499 1495 1486 1482 1482 1484 1485 1487 1488 1490 1496 1503 1507 1508 1509 1511 1512 1512 1513 1512 1512 1512 1512 1512 1512 1512 1512 1511 1511 1512 1512 1512 1512 1513 1513 1514 1515 1515 1516 1517 1517 1517 1518 1518 1519 1520
1500 1499 1502 1501 1495 1487 1482 1483 1484 1486 1488 1489 1492 1497 1504 1507 1509 1510 1511 1512 1513 1513 1513 1512 1512 1512 1512 1511 1511 1511 1510 1510 1510 1510 1510 1510 1510 1511 1512 1512 1513 1514 1514 1515 1515 1516 1516 1517 1518
1499 1497 1496 1494 1494 1489 1484 1483 1485 1487 1489 1491 1492 1497 1503 1507 1509 1510 1511 1512 1513 1514 1514 1513 1512 1512 1511 1511 1510 1510 1509 1509 1508 1508 1508 1508 1509 1509 1509 1510 1510 1511 1512 1512 1513 1513 1514 1515 1516
1495 1496 1492 1490 1491 1490 1484 1484 1486 1487 1490 1493 1493 1496 1502 1506 1509 1510 1512 1512 1513 1514 1514 1514 1513 1512 1512 1510 1509 1509 1508 1508 1507 1507 1507 1507 1507 1508 1508 1508 1508 1509 1509 1510 1510 1511 1512 1513 1514
1494 1497 1497 1491 1489 1487 1483 1485 1487 1488 1490 1492 1494 1497 1501 1505 1508 1510 1511 1512 1513 1514 1514 1514 1513 1513 1512 1511 1510 1509 1508 1507 1507 1507 1506 1506 1506 1506 1507 1506 1506 1507 1507 1507 1507 1508 1509 1510 1511
1492 1497 1493 1486 1482 1483 1483 1485 1487 1489 1490 1493 1496 1499 1502 1505 1508 1509 1510 1511 1512 1513 1514 1514 1513 1513 1512 1511 1510 1509 1509 1508 1507 1507 1506 1506 1506 1506 1506 1505 1505 1505 1505 1505 1504 1505 1506 1507 1509
1488 1489 1486 1483 1482 1482 1483 1485 1487 1488 1491 1493 1496 1499 1502 1505 1507 1508 1509 1511 1512 1513 1513 1513 1513 1513 1512 1511 1510 1509 1508 1508 1508 1507 1506 1506 1505 1505 1504 1504 1504 1503 1503 1503 1503 1503 1504 1505 1506
1488 1486 1485 1484 1484 1484 1484 1485 1487 1488 1491 1492 1495 1497 1501 1503 1505 1507 1508 1510 1511 1512 1512 1513 1513 1512 1511 1510 1509 1509 1508 1508 1507 1506 1506 1505 1504 1504 1503 1503 1503 1502 1502 1502 1502 1502 1502 1503 1504
1488 1486 1484 1483 1484 1484 1485 1485 1486 1487 1490 1492 1494 1497 1500 1502 1504 1506 1507 1509 1510 1511 1511 1511 1512 1511 1510 1509 1508 1509 1508 1507 1507 1506 1505 1505 1504 1503 1502 1502 1501 1501 1501 1501 1501 1500 1501 1501 1502
1485 1484 1483 1482 1482 1484 1484 1485 1485 1486 1488 1491 1493 1496 1498 1501 1503 1505 1507 1508 1509 1510 1511 1510 1511 1510 1510 1509 1508 1508 1507 1507 1506 1505 1505 1504 1503 1502 1501 1501 1500 1500 1499 1499 1499 1499 1500 1500 1500
1484 1483 1482 1481 1481 1482 1484 1484 1482 1483 1486 1489 1491 1493 1496 1499 1501 1504 1505 1507 1508 1509 1510 1509 1510 1510 1509 1508 1507 1508 1507 1506 1506 1505 1504 1504 1502 1502 1501 1500 1499 1499 1498 1498 1498 1498 1498 1499 1499
1481 1482 1486 1481 1480 1481 1486 1489 1480 1481 1484 1486 1488 1490 1493 1496 1499 1502 1503 1506 1507 1508 1509 1508 1509 1509 1508 1507 1507 1507 1506 1506 1505 1504 1503 1502 1501 1501 1500 1499 1498 1498 1497 1497 1497 1497 1497 1497 1498
1480 1484 1485 1485 1479 1478 1482 1485 1479 1480 1481 1483 1485 1487 1490 1493 1497 1499 1502 1504 1506 1507 1508 1508 1508 1508 1507 1507 1506 1506 1506 1505 1505 1504 1502 1501 1500 1500 1499 1498 1498 1497 1497 1496 1496 1496 1496 1496 1496
1486 1482 1483 1485 1477 1476 1478 1478 1475 1476 1478 1479 1481 1484 1487 1490 1493 1496 1500 1502 1504 1506 1507 1507 1507 1507 1507 1506 1506 1506 1505 1505 1504 1503 1502 1501 1500 1499 1499 1498 1497 1496 1496 1495 1495 1495 1495 1495 1496
1483 1483 1483 1479 1473 1476 1476 1474 1471 1471 1473 1476 1478 1481 1483 1487 1490 1493 1497 1500 1503 1504 1506 1506 1506 1506 1505 1505 1505 1505 1505 1505 1504 1503 1502 1501 1500 1499 1498 1497 1497 1496 1495 1495 1494 1494 1494 1495 1495
1482 1482 1481 1478 1473 1475 1473 1470 1465 1464 1467 1471 1474 1476 1480 1484 1487 1491 1495 1498 1501 1503 1505 1506 1505 1505 1505 1504 1505 1505 1504 1504 1504 1503 1502 1501 1500 1499 1498 1497 1497 1496 1495 1494 1494 1494 1494 1494 1495
1478 1481 1482 1484 1477 1471 1472 1472 1464 1460 1463 1467 1471 1474 1476 1479 1484 1488 1492 1496 1499 1501 1503 1505 1504 1504 1503 1504 1504 1504 1504 1504 1504 1503 1502 1501 1500 1499 1498 1497 1497 1496 1495 1494 1494 1494 1494 1494 1495
1484 1478 1477 1478 1481 1480 1473 1485 1467 1458 1462 1465 1469 1472 1475 1477 1481 1485 1489 1493 1497 1499 1501 1503 1502 1503 1503 1503 1503 1503 1504 1504 1503 1503 1502 1501 1500 1499 1498 1497 1497 1496 1495 1495 1494 1494 1494 1495 1495
1478 1474 1475 1474 1476 1478 1471 1477 1470 1460 1465 1464 1466 1470 1473 1476 1479 1483 1487 1490 1494 1497 1499 1501 1501 1501 1502 1502 1502 1502 1503 1503 1503 1503 1502 1502 1501 1499 1498 1498 1497 1496 1496 1495 1495 1494 1494 1495 1495
1472 1473 1472 1470 1475 1487 1473 1477 1477 1464 1464 1463 1463 1467 1471 1474 1478 1482 1485 1488 1492 1495 1497 1498 1499 1500 1500 1501 1501 1502 1502 1502 1502 1502 1502 1501 1501 1500 1499 1498 1497 1496 1496 1495 1495 1495 1495 1495 1495
1473 1481 1490 1493 1494 1489 1467 1471 1471 1459 1459 1462 1464 1466 1468 1472 1476 1480 1483 1486 1490 1492 1494 1496 1497 1498 1499 1499 1500 1501 1501 1501 1502 1501 1501 1501 1501 1500 1499 1498 1497 1496 1496 1495 1495 1495 1495 1495 1495
1472 1476 1495 1509 1505 1488 1471 1472 1464 1456 1459 1462 1465 1466 1468 1471 1475 1478 1481 1484 1487 1490 1492 1494 1495 1496 1497 1498 1499 1500 1500 1500 1501 1501 1501 1501 1500 1500 1499 1498 1497 1497 1496 1496 1495 1495 1495 1495 1495
1472 1473 1471 1482 1484 1486 1474 1464 1457 1455 1459 1462 1464 1466 1468 1470 1473 1476 1479 1482 1485 1487 1489 1491 1493 1494 1495 1497 1498 1499 1499 1499 1500 1500 1500 1500 1500 1499 1498 1498 1497 1497 1496 1496 1495 1495 1495 1495 1495
1471 1471 1476 1484 1496 1500 1486 1474 1473 1464 1462 1462 1463 1465 1467 1469 1472 1474 1477 1479 1482 1484 1486 1489 1491 1492 1493 1495 1496 1497 1498 1498 1498 1499 1499 1499 1499 1498 1498 1498 1498 1497 1496 1496 1495 1495 1495 1495 1495
1472 1474 1475 1479 1481 1495 1499 1486 1460 1461 1462 1463 1463 1463 1465 1467 1469 1472 1474 1477 1479 1481 1484 1486 1488 1490 1491 1493 1494 1495 1496 1497 1497 1497 1497 1497 1498 1498 1498 1498 1497 1497 1497 1496 1496 1495 1495 1495 1495
1466 1470 1474 1487 1487 1484 1491 1484 1456 1457 1459 1460 1462 1462 1463 1464 1467 1469 1472 1474 1476 1478 1480 1483 1485 1487 1489 1490 1492 1493 1494 1495 1496 1496 1496 1496 1497 1497 1497 1497 1497 1497 1497 1496 1496 1495 1495 1494 1494